Time,TemperatureF,DewpointF,PressureIn,WindDirection,WindDirectionDegrees,WindSpeedMPH,WindSpeedGustMPH,Humidity,HourlyPrecipIn,Conditions,Clouds,dailyrainin,SoftwareType,DateUTC
2013-04-09 00:02:00,69.0,63.0,29.93,South,172,2.0,16.0,80,0.00,,,0.00,,2013-04-09 05:02:00,
2013-04-09 00:12:00,69.0,63.0,29.93,SSE,168,1.0,2.0,80,0.00,,,0.00,,2013-04-09 05:12:00,
2013-04-09 00:22:00,69.0,63.0,29.93,SSE,168,1.0,2.0,80,0.00,,,0.00,,2013-04-09 05:22:00,
2013-04-09 00:32:00,69.0,63.0,29.94,SW,220,1.0,4.0,82,0.00,,,0.00,,2013-04-09 05:32:00,
2013-04-09 00:42:00,69.0,63.0,29.94,SSE,159,2.0,6.0,82,0.00,,,0.00,,2013-04-09 05:42:00,
2013-04-09 00:52:00,69.0,63.0,29.94,SSE,159,2.0,6.0,82,0.00,,,0.00,,2013-04-09 05:52:00,
2013-04-09 01:02:00,69.0,63.0,29.93,South,188,1.0,6.0,82,0.00,,,0.00,,2013-04-09 06:02:00,
2013-04-09 01:12:00,69.0,63.0,29.93,SE,124,0.0,6.0,82,0.00,,,0.00,,2013-04-09 06:12:00,
2013-04-09 01:22:00,69.0,63.0,29.93,SE,124,0.0,6.0,82,0.00,,,0.00,,2013-04-09 06:22:00,
2013-04-09 01:32:00,69.0,64.0,29.92,SSE,168,0.0,9.0,83,0.00,,,0.00,,2013-04-09 06:32:00,
2013-04-09 01:42:00,69.0,64.0,29.92,SSE,168,0.0,9.0,83,0.00,,,0.00,,2013-04-09 06:42:00,
2013-04-09 01:52:00,69.0,64.0,29.92,SE,125,0.0,9.0,83,0.00,,,0.00,,2013-04-09 06:52:00,
2013-04-09 02:02:00,69.0,64.0,29.92,SSW,201,2.0,9.0,83,0.00,,,0.00,,2013-04-09 07:02:00,
2013-04-09 02:12:00,69.0,64.0,29.92,SSW,201,2.0,9.0,83,0.00,,,0.00,,2013-04-09 07:12:00,
2013-04-09 02:22:00,69.0,64.0,29.91,South,189,1.0,9.0,83,0.00,,,0.00,,2013-04-09 07:22:00,
2013-04-09 02:32:00,69.0,64.0,29.91,WNW,288,0.0,9.0,83,0.00,,,0.00,,2013-04-09 07:32:00,
2013-04-09 02:42:00,69.0,64.0,29.91,WNW,288,0.0,9.0,83,0.00,,,0.00,,2013-04-09 07:42:00,
2013-04-09 02:52:00,69.0,64.0,29.91,South,171,0.0,9.0,83,0.00,,,0.00,,2013-04-09 07:52:00,
2013-04-09 03:02:00,69.0,64.0,29.91,ESE,120,2.0,9.0,83,0.00,,,0.00,,2013-04-09 08:02:00,
2013-04-09 03:12:00,69.0,64.0,29.91,ESE,120,2.0,9.0,83,0.00,,,0.00,,2013-04-09 08:12:00,
2013-04-09 03:22:00,69.0,64.0,29.90,SSE,160,0.0,9.0,83,0.00,,,0.00,,2013-04-09 08:22:00,
2013-04-09 03:32:00,69.0,64.0,29.90,SSE,161,1.0,9.0,84,0.00,,,0.00,,2013-04-09 08:32:00,
2013-04-09 03:42:00,69.0,64.0,29.89,SSW,193,0.0,9.0,84,0.00,,,0.00,,2013-04-09 08:42:00,
2013-04-09 03:52:00,69.0,64.0,29.89,SSW,193,0.0,9.0,84,0.00,,,0.00,,2013-04-09 08:52:00,
2013-04-09 04:02:00,69.0,64.0,29.89,SSE,153,0.0,9.0,85,0.00,,,0.00,,2013-04-09 09:02:00,
2013-04-09 04:12:00,68.0,63.0,29.89,SW,219,0.0,9.0,85,0.00,,,0.00,,2013-04-09 09:12:00,
2013-04-09 04:22:00,68.0,63.0,29.89,SW,219,0.0,9.0,85,0.00,,,0.00,,2013-04-09 09:22:00,
2013-04-09 04:33:00,68.0,64.0,29.89,SW,220,0.0,9.0,86,0.00,,,0.00,,2013-04-09 09:33:00,
2013-04-09 04:43:00,68.0,64.0,29.89,SW,220,0.0,9.0,86,0.00,,,0.00,,2013-04-09 09:43:00,
2013-04-09 04:53:00,68.0,64.0,29.89,SSW,207,0.0,9.0,87,0.00,,,0.00,,2013-04-09 09:53:00,
2013-04-09 05:03:00,68.0,64.0,29.90,South,177,0.0,9.0,88,0.00,,,0.00,,2013-04-09 10:03:00,
2013-04-09 05:12:00,68.0,64.0,29.90,South,177,0.0,9.0,88,0.00,,,0.00,,2013-04-09 10:12:00,
2013-04-09 05:23:00,68.0,64.0,29.89,South,177,0.0,9.0,88,0.00,,,0.00,,2013-04-09 10:23:00,
2013-04-09 05:33:00,68.0,65.0,29.89,South,177,0.0,9.0,89,0.00,,,0.00,,2013-04-09 10:33:00,
2013-04-09 05:42:00,68.0,65.0,29.89,South,177,0.0,9.0,89,0.00,,,0.00,,2013-04-09 10:42:00,
2013-04-09 05:52:00,68.0,65.0,29.89,NE,43,2.0,9.0,89,0.00,,,0.00,,2013-04-09 10:52:00,
2013-04-09 06:02:00,68.0,65.0,29.90,East,95,1.0,9.0,90,0.00,,,0.00,,2013-04-09 11:02:00,
2013-04-09 06:12:00,68.0,65.0,29.90,East,95,1.0,9.0,90,0.00,,,0.00,,2013-04-09 11:12:00,
2013-04-09 06:22:00,69.0,66.0,29.90,SSW,201,1.0,9.0,90,0.00,,,0.00,,2013-04-09 11:22:00,
2013-04-09 06:32:00,68.0,65.0,29.91,South,183,0.0,9.0,91,0.00,,,0.00,,2013-04-09 11:32:00,
2013-04-09 06:42:00,68.0,65.0,29.91,SSW,200,0.0,9.0,91,0.00,,,0.00,,2013-04-09 11:42:00,
2013-04-09 06:52:00,68.0,65.0,29.91,SSW,200,0.0,9.0,91,0.00,,,0.00,,2013-04-09 11:52:00,
2013-04-09 07:02:00,68.0,65.0,29.93,South,181,1.0,9.0,91,0.00,,,0.00,,2013-04-09 12:02:00,
2013-04-09 07:12:00,68.0,65.0,29.93,South,181,1.0,9.0,91,0.00,,,0.00,,2013-04-09 12:12:00,
2013-04-09 07:22:00,69.0,66.0,29.93,South,186,0.0,9.0,91,0.00,,,0.00,,2013-04-09 12:22:00,
2013-04-09 07:32:00,69.0,66.0,29.95,South,180,0.0,9.0,91,0.00,,,0.00,,2013-04-09 12:32:00,
2013-04-09 07:42:00,69.0,66.0,29.95,South,180,0.0,9.0,91,0.00,,,0.00,,2013-04-09 12:42:00,
2013-04-09 07:52:00,69.0,66.0,29.95,WNW,288,1.0,9.0,91,0.00,,,0.00,,2013-04-09 12:52:00,
2013-04-09 08:02:00,69.0,67.0,29.95,SW,221,0.0,9.0,92,0.00,,,0.00,,2013-04-09 13:02:00,
2013-04-09 08:12:00,69.0,67.0,29.95,SW,221,0.0,9.0,92,0.00,,,0.00,,2013-04-09 13:12:00,
2013-04-09 08:22:00,69.0,67.0,29.95,South,190,1.0,9.0,92,0.00,,,0.00,,2013-04-09 13:22:00,
2013-04-09 08:32:00,69.0,67.0,29.97,SSE,153,0.0,9.0,92,0.00,,,0.00,,2013-04-09 13:32:00,
2013-04-09 08:42:00,69.0,67.0,29.97,SSE,153,0.0,9.0,92,0.00,,,0.00,,2013-04-09 13:42:00,
2013-04-09 08:53:00,69.0,67.0,29.98,SW,235,1.0,12.0,92,0.00,,,0.00,,2013-04-09 13:53:00,
2013-04-09 09:03:00,70.0,67.0,29.99,SE,145,0.0,12.0,91,0.00,,,0.00,,2013-04-09 14:03:00,
2013-04-09 09:12:00,70.0,67.0,29.99,SE,145,0.0,12.0,91,0.00,,,0.00,,2013-04-09 14:12:00,
2013-04-09 09:22:00,70.0,67.0,29.98,SSW,203,0.0,12.0,91,0.00,,,0.00,,2013-04-09 14:22:00,
2013-04-09 09:32:00,70.0,67.0,29.98,South,188,1.0,12.0,91,0.00,,,0.00,,2013-04-09 14:32:00,
2013-04-09 09:42:00,70.0,67.0,29.98,South,188,1.0,12.0,91,0.00,,,0.00,,2013-04-09 14:42:00,
2013-04-09 09:52:00,71.0,68.0,29.98,SSE,164,1.0,12.0,90,0.00,,,0.00,,2013-04-09 14:52:00,
2013-04-09 10:02:00,71.0,68.0,29.98,SSW,204,0.0,12.0,89,0.00,,,0.00,,2013-04-09 15:02:00,
2013-04-09 10:12:00,71.0,68.0,29.98,SSW,204,0.0,12.0,89,0.00,,,0.00,,2013-04-09 15:12:00,
2013-04-09 10:22:00,72.0,68.0,29.98,SSW,208,1.0,12.0,86,0.00,,,0.00,,2013-04-09 15:22:00,
2013-04-09 10:33:00,73.0,69.0,29.97,ESE,116,0.0,12.0,86,0.00,,,0.00,,2013-04-09 15:33:00,
2013-04-09 10:43:00,73.0,69.0,29.97,ESE,116,0.0,12.0,86,0.00,,,0.00,,2013-04-09 15:43:00,
2013-04-09 10:53:00,75.0,69.0,29.98,NNE,30,0.0,12.0,82,0.00,,,0.00,,2013-04-09 15:53:00,
2013-04-09 11:03:00,76.0,69.0,29.98,WSW,253,1.0,14.0,80,0.00,,,0.00,,2013-04-09 16:03:00,
2013-04-09 11:13:00,76.0,69.0,29.98,WSW,253,1.0,14.0,80,0.00,,,0.00,,2013-04-09 16:13:00,
2013-04-09 11:23:00,76.0,69.0,29.98,ESE,116,3.0,14.0,78,0.00,,,0.00,,2013-04-09 16:23:00,
2013-04-09 11:33:00,77.0,69.0,29.98,SSE,149,1.0,14.0,76,0.00,,,0.00,,2013-04-09 16:33:00,
2013-04-09 11:42:00,77.0,69.0,29.98,SSE,149,1.0,14.0,76,0.00,,,0.00,,2013-04-09 16:42:00,
2013-04-09 11:53:00,78.0,69.0,29.98,South,171,2.0,16.0,75,0.00,,,0.00,,2013-04-09 16:53:00,
2013-04-09 12:02:00,78.0,69.0,29.98,South,191,2.0,16.0,73,0.00,,,0.00,,2013-04-09 17:02:00,
2013-04-09 12:12:00,79.0,69.0,29.98,South,184,1.0,21.0,72,0.00,,,0.00,,2013-04-09 17:12:00,
2013-04-09 12:23:00,79.0,69.0,29.98,South,184,1.0,21.0,72,0.00,,,0.00,,2013-04-09 17:23:00,
2013-04-09 12:32:00,79.0,69.0,29.98,SE,139,2.0,21.0,72,0.00,,,0.00,,2013-04-09 17:32:00,
2013-04-09 12:42:00,79.0,69.0,29.98,SE,139,2.0,21.0,72,0.00,,,0.00,,2013-04-09 17:42:00,
2013-04-09 12:54:00,81.0,70.0,29.97,SSE,166,1.0,21.0,70,0.00,,,0.00,,2013-04-09 17:54:00,
2013-04-09 13:02:00,81.0,69.0,29.96,South,170,2.0,21.0,68,0.00,,,0.00,,2013-04-09 18:02:00,
2013-04-09 13:12:00,81.0,69.0,29.96,South,170,2.0,21.0,68,0.00,,,0.00,,2013-04-09 18:12:00,
2013-04-09 13:22:00,81.0,69.0,29.96,SW,236,2.0,21.0,68,0.00,,,0.00,,2013-04-09 18:22:00,
2013-04-09 13:32:00,80.0,68.0,29.96,South,186,2.0,21.0,66,0.00,,,0.00,,2013-04-09 18:32:00,
2013-04-09 13:43:00,80.0,68.0,29.96,South,186,2.0,21.0,66,0.00,,,0.00,,2013-04-09 18:43:00,
2013-04-09 13:52:00,81.0,69.0,29.95,SE,128,0.0,21.0,68,0.00,,,0.00,,2013-04-09 18:52:00,
2013-04-09 14:02:00,81.0,69.0,29.95,SE,128,0.0,21.0,68,0.00,,,0.00,,2013-04-09 19:02:00,
2013-04-09 14:12:00,81.0,69.0,29.95,SE,128,0.0,21.0,68,0.00,,,0.00,,2013-04-09 19:12:00,
2013-04-09 14:22:00,81.0,69.0,29.95,SE,128,0.0,21.0,68,0.00,,,0.00,,2013-04-09 19:22:00,
2013-04-09 14:33:00,84.0,68.0,29.94,South,178,3.0,21.0,58,0.00,,,0.00,,2013-04-09 19:33:00,
2013-04-09 14:42:00,84.0,68.0,29.94,South,178,3.0,21.0,58,0.00,,,0.00,,2013-04-09 19:42:00,
2013-04-09 14:52:00,86.0,69.0,29.93,SSE,161,3.0,21.0,57,0.00,,,0.00,,2013-04-09 19:52:00,
2013-04-09 15:02:00,85.0,68.0,29.92,East,101,2.0,21.0,56,0.00,,,0.00,,2013-04-09 20:02:00,
2013-04-09 15:12:00,86.0,68.0,29.92,South,170,3.0,21.0,55,0.00,,,0.00,,2013-04-09 20:12:00,
2013-04-09 15:22:00,86.0,68.0,29.92,South,170,3.0,21.0,55,0.00,,,0.00,,2013-04-09 20:22:00,
2013-04-09 15:33:00,88.0,69.0,29.91,SE,139,1.0,21.0,53,0.00,,,0.00,,2013-04-09 20:33:00,
2013-04-09 15:42:00,88.0,69.0,29.91,SE,139,1.0,21.0,53,0.00,,,0.00,,2013-04-09 20:42:00,
2013-04-09 15:52:00,86.0,68.0,29.91,ESE,102,1.0,21.0,55,0.00,,,0.00,,2013-04-09 20:52:00,
2013-04-09 16:02:00,87.0,67.0,29.90,ESE,114,2.0,21.0,52,0.00,,,0.00,,2013-04-09 21:02:00,
2013-04-09 16:13:00,87.0,67.0,29.90,ESE,114,2.0,21.0,52,0.00,,,0.00,,2013-04-09 21:13:00,
2013-04-09 16:22:00,87.0,67.0,29.90,ESE,114,2.0,21.0,52,0.00,,,0.00,,2013-04-09 21:22:00,
2013-04-09 16:33:00,85.0,67.0,29.90,ESE,111,2.0,21.0,55,0.00,,,0.00,,2013-04-09 21:33:00,
2013-04-09 16:42:00,85.0,67.0,29.90,ESE,111,2.0,21.0,55,0.00,,,0.00,,2013-04-09 21:42:00,
2013-04-09 16:53:00,87.0,68.0,29.90,ESE,105,1.0,21.0,53,0.00,,,0.00,,2013-04-09 21:53:00,
2013-04-09 17:03:00,84.0,67.0,29.90,South,176,1.0,21.0,56,0.00,,,0.00,,2013-04-09 22:03:00,
2013-04-09 17:12:00,85.0,68.0,29.90,ESE,123,1.0,21.0,56,0.00,,,0.00,,2013-04-09 22:12:00,
2013-04-09 17:23:00,85.0,68.0,29.90,ESE,123,1.0,21.0,56,0.00,,,0.00,,2013-04-09 22:23:00,
2013-04-09 17:33:00,85.0,66.0,29.90,ENE,65,0.0,21.0,54,0.00,,,0.00,,2013-04-09 22:33:00,
2013-04-09 17:42:00,85.0,66.0,29.90,ENE,65,0.0,21.0,54,0.00,,,0.00,,2013-04-09 22:42:00,
2013-04-09 17:53:00,85.0,66.0,29.91,South,172,0.0,21.0,54,0.00,,,0.00,,2013-04-09 22:53:00,
2013-04-09 18:03:00,83.0,66.0,29.92,South,183,3.0,21.0,56,0.00,,,0.00,,2013-04-09 23:03:00,
2013-04-09 18:12:00,83.0,66.0,29.92,SE,134,2.0,21.0,56,0.00,,,0.00,,2013-04-09 23:12:00,
2013-04-09 18:22:00,83.0,66.0,29.92,SE,134,2.0,21.0,56,0.00,,,0.00,,2013-04-09 23:22:00,
2013-04-09 18:32:00,82.0,66.0,29.93,SSE,154,1.0,21.0,59,0.00,,,0.00,,2013-04-09 23:32:00,
2013-04-09 18:42:00,82.0,66.0,29.93,SSE,154,1.0,21.0,59,0.00,,,0.00,,2013-04-09 23:42:00,
2013-04-09 18:52:00,81.0,66.0,29.93,SSE,155,2.0,21.0,61,0.00,,,0.00,,2013-04-09 23:52:00,
2013-04-09 19:03:00,81.0,66.0,29.93,SSE,155,2.0,21.0,61,0.00,,,0.00,,2013-04-10 00:03:00,
2013-04-09 19:12:00,81.0,66.0,29.93,SSE,155,2.0,21.0,61,0.00,,,0.00,,2013-04-10 00:12:00,
2013-04-09 19:22:00,80.0,67.0,29.93,SSE,162,2.0,21.0,64,0.00,,,0.00,,2013-04-10 00:22:00,
2013-04-09 19:32:00,79.0,66.0,29.93,South,190,5.0,21.0,65,0.00,,,0.00,,2013-04-10 00:32:00,
2013-04-09 19:42:00,79.0,66.0,29.93,South,190,5.0,21.0,65,0.00,,,0.00,,2013-04-10 00:42:00,
2013-04-09 19:52:00,78.0,66.0,29.93,ESE,120,3.0,21.0,66,0.00,,,0.00,,2013-04-10 00:52:00,
2013-04-09 20:02:00,77.0,66.0,29.93,SSE,148,1.0,21.0,68,0.00,,,0.00,,2013-04-10 01:02:00,
2013-04-09 20:12:00,77.0,66.0,29.93,SSE,161,1.0,21.0,69,0.00,,,0.00,,2013-04-10 01:12:00,
2013-04-09 20:23:00,77.0,66.0,29.93,SSE,161,1.0,21.0,69,0.00,,,0.00,,2013-04-10 01:23:00,
2013-04-09 20:32:00,76.0,66.0,29.94,South,190,2.0,21.0,71,0.00,,,0.00,,2013-04-10 01:32:00,
2013-04-09 20:42:00,76.0,66.0,29.94,South,190,2.0,21.0,71,0.00,,,0.00,,2013-04-10 01:42:00,
2013-04-09 20:52:00,76.0,66.0,29.94,SSW,196,2.0,21.0,72,0.00,,,0.00,,2013-04-10 01:52:00,
2013-04-09 21:02:00,76.0,67.0,29.94,South,179,1.0,21.0,73,0.00,,,0.00,,2013-04-10 02:02:00,
2013-04-09 21:12:00,76.0,67.0,29.94,South,179,1.0,21.0,73,0.00,,,0.00,,2013-04-10 02:12:00,
2013-04-09 21:22:00,75.0,66.0,29.93,SSE,167,2.0,21.0,74,0.00,,,0.00,,2013-04-10 02:22:00,
2013-04-09 21:32:00,75.0,67.0,29.93,SSE,156,2.0,21.0,76,0.00,,,0.00,,2013-04-10 02:32:00,
2013-04-09 21:42:00,75.0,67.0,29.93,SSE,156,2.0,21.0,76,0.00,,,0.00,,2013-04-10 02:42:00,
2013-04-09 21:52:00,74.0,66.0,29.93,SSE,154,3.0,21.0,77,0.00,,,0.00,,2013-04-10 02:52:00,
2013-04-09 22:02:00,74.0,67.0,29.89,SSE,164,3.0,21.0,78,0.00,,,0.00,,2013-04-10 03:02:00,
2013-04-09 22:12:00,74.0,67.0,29.89,SSE,164,3.0,21.0,78,0.00,,,0.00,,2013-04-10 03:12:00,
2013-04-09 22:22:00,74.0,67.0,29.89,SE,139,5.0,21.0,79,0.00,,,0.00,,2013-04-10 03:22:00,
2013-04-09 22:33:00,74.0,67.0,29.90,SSW,193,5.0,21.0,80,0.00,,,0.00,,2013-04-10 03:33:00,
2013-04-09 22:43:00,74.0,67.0,29.90,SSW,193,5.0,21.0,80,0.00,,,0.00,,2013-04-10 03:43:00,
2013-04-09 22:52:00,74.0,67.0,29.95,SSW,192,1.0,21.0,80,0.00,,,0.00,,2013-04-10 03:52:00,
2013-04-09 23:03:00,74.0,67.0,29.94,South,187,1.0,21.0,80,0.00,,,0.00,,2013-04-10 04:03:00,
2013-04-09 23:13:00,74.0,67.0,29.94,South,187,1.0,21.0,80,0.00,,,0.00,,2013-04-10 04:13:00,
2013-04-09 23:23:00,74.0,67.0,29.94,SW,230,2.0,21.0,79,0.00,,,0.00,,2013-04-10 04:23:00,
2013-04-09 23:33:00,74.0,67.0,29.94,SSE,149,2.0,21.0,79,0.00,,,0.00,,2013-04-10 04:33:00,
2013-04-09 23:42:00,74.0,67.0,29.94,SSE,149,2.0,21.0,79,0.00,,,0.00,,2013-04-10 04:42:00,
2013-04-09 23:53:00,74.0,67.0,29.95,SW,231,1.0,21.0,79,0.00,,,0.00,,2013-04-10 04:53:00,